When you browse on this site, cookies collect data to enhance your experience and personalize the content and advertising you see.
Visit our Privacy Policy to learn more. By continuing to use the site, you agree to this use of cookies and data.
  • In Norway
  • List of Countries
  • For 7 days
  • Water Temperature
  • Satellite Maps
  • Weather Map
  • Weather Widgets
  • user-avatar
    Login

    Hourly Weather Yulara

    Today, 21 January, Monday

    Time Temperature Precipitation Wind Pressure Humidity
    00:00 +37°C° 0 mm 10 mps 716 mmHg 22%
    01:00 +36°C° 0 mm 10 mps 715 mmHg 23%
    02:00 +36°C° 0 mm 10 mps 715 mmHg 24%
    03:00 +33°C° 0 mm 11 mps 715 mmHg 26%
    04:00 +34°C° 0 mm 11 mps 715 mmHg 25%
    05:00 +34°C° 0 mm 10 mps 715 mmHg 24%
    06:00 +34°C° 0 mm 10 mps 715 mmHg 23%
    07:00 +37°C° 0 mm 10 mps 715 mmHg 20%
    08:00 +39°C° 0 mm 10 mps 716 mmHg 18%
    09:00 +42°C° 0 mm 10 mps 716 mmHg 16%
    10:00 +43°C° 0 mm 8 mps 715 mmHg 14%
    11:00 +45°C° 0 mm 7 mps 715 mmHg 13%
    12:00 +46°C° 0 mm 5 mps 715 mmHg 11%
    13:00 +46°C° 0 mm 5 mps 714 mmHg 11%
    14:00 +47°C° 0 mm 5 mps 714 mmHg 10%
    15:00 +47°C° 0 mm 5 mps 713 mmHg 10%
    16:00 +46°C° 0 mm 5 mps 713 mmHg 11%
    17:00 +46°C° 0 mm 6 mps 713 mmHg 11%
    18:00 +45°C° 0 mm 6 mps 713 mmHg 12%
    19:00 +44°C° 0 mm 6 mps 714 mmHg 12%
    20:00 +42°C° 0 mm 5 mps 714 mmHg 13%
    21:00 +41°C° 0 mm 5 mps 714 mmHg 14%
    22:00 +40°C° 0 mm 5 mps 714 mmHg 14%
    23:00 +38°C° 0 mm 4 mps 714 mmHg 14%

    Tomorrow, 22 January, Tuesday

    Time Temperature Precipitation Wind Pressure Humidity
    00:00 +37°C° 0 mm 4 mps 714 mmHg 14%
    01:00 +36°C° 0 mm 4 mps 714 mmHg 16%
    02:00 +35°C° 0 mm 4 mps 714 mmHg 17%
    03:00 +35°C° 0 mm 4 mps 714 mmHg 19%
    04:00 +34°C° 0 mm 4 mps 714 mmHg 21%
    05:00 +33°C° 0 mm 3 mps 714 mmHg 23%
    06:00 +31°C° 0 mm 3 mps 714 mmHg 24%
    07:00 +35°C° 0 mm 4 mps 715 mmHg 21%
    08:00 +39°C° 0 mm 5 mps 715 mmHg 18%
    09:00 +43°C° 0 mm 7 mps 716 mmHg 15%
    10:00 +44°C° 0 mm 7 mps 715 mmHg 14%
    11:00 +45°C° 0 mm 7 mps 715 mmHg 12%
    12:00 +46°C° 0 mm 7 mps 714 mmHg 10%
    13:00 +47°C° 0 mm 7 mps 714 mmHg 10%
    14:00 +47°C° 0 mm 6 mps 713 mmHg 9%
    15:00 +47°C° 0 mm 6 mps 713 mmHg 9%
    16:00 +46°C° 0 mm 7 mps 713 mmHg 11%
    17:00 +45°C° 0 mm 8 mps 713 mmHg 13%
    18:00 +44°C° 0 mm 9 mps 712 mmHg 14%
    19:00 +43°C° 0 mm 8 mps 713 mmHg 16%
    20:00 +41°C° 0 mm 8 mps 713 mmHg 18%
    21:00 +40°C° 0 mm 7 mps 714 mmHg 20%
    22:00 +40°C° 0 mm 7 mps 714 mmHg 22%
    23:00 +39°C° 0 mm 7 mps 714 mmHg 23%

    Day after tomorrow, 23 January, Wednesday

    Time Temperature Precipitation Wind Pressure Humidity
    00:00 +39°C° 0 mm 7 mps 714 mmHg 25%
    01:00 +37°C° 0 mm 5 mps 714 mmHg 25%
    02:00 +37°C° 0 mm 4 mps 713 mmHg 24%
    03:00 +37°C° 0 mm 2 mps 713 mmHg 23%
    04:00 +36°C° 0.2 mm 2 mps 713 mmHg 26%
    05:00 +34°C° 0.2 mm 2 mps 713 mmHg 29%
    06:00 +32°C° 0.2 mm 2 mps 714 mmHg 32%
    07:00 +35°C° 0 mm 2 mps 714 mmHg 30%
    08:00 +37°C° 0 mm 2 mps 715 mmHg 27%
    09:00 +39°C° 0 mm 1 mps 715 mmHg 25%
    10:00 +40°C° 0 mm 2 mps 715 mmHg 23%
    11:00 +41°C° 0 mm 2 mps 715 mmHg 21%
    12:00 +44°C° 0 mm 3 mps 714 mmHg 19%
    13:00 +44°C° 0 mm 3 mps 714 mmHg 18%
    14:00 +44°C° 0 mm 4 mps 713 mmHg 17%
    15:00 +44°C° 0 mm 4 mps 713 mmHg 17%
    16:00 +44°C° 0 mm 4 mps 713 mmHg 16%
    17:00 +44°C° 0 mm 4 mps 713 mmHg 16%
    18:00 +43°C° 0 mm 4 mps 713 mmHg 15%
    19:00 +42°C° 0 mm 4 mps 713 mmHg 16%
    20:00 +40°C° 0 mm 3 mps 713 mmHg 18%
    21:00 +38°C° 0 mm 2 mps 713 mmHg 19%
    22:00 +38°C° 0 mm 2 mps 713 mmHg 20%
    23:00 +37°C° 0 mm 2 mps 713 mmHg 21%

    24 January, Thursday

    Time Temperature Precipitation Wind Pressure Humidity
    00:00 +37°C° 0 mm 2 mps 713 mmHg 23%
    01:00 +36°C° 0 mm 2 mps 713 mmHg 24%
    02:00 +36°C° 0 mm 2 mps 713 mmHg 25%
    03:00 +35°C° 0 mm 2 mps 712 mmHg 26%
    04:00 +35°C° 0 mm 3 mps 712 mmHg 26%
    05:00 +34°C° 0 mm 3 mps 713 mmHg 26%
    06:00 +33°C° 0 mm 3 mps 713 mmHg 26%
    07:00 +36°C° 0 mm 4 mps 713 mmHg 23%
    08:00 +40°C° 0 mm 5 mps 714 mmHg 20%
    09:00 +42°C° 0 mm 6 mps 714 mmHg 17%
    10:00 +44°C° 0 mm 6 mps 714 mmHg 16%
    11:00 +46°C° 0 mm 6 mps 714 mmHg 15%
    12:00 +47°C° 0 mm 6 mps 713 mmHg 13%
    13:00 +46°C° 0 mm 5 mps 713 mmHg 14%
    14:00 +46°C° 0 mm 5 mps 712 mmHg 14%
    15:00 +45°C° 0 mm 5 mps 712 mmHg 15%
    16:00 +44°C° 0 mm 4 mps 712 mmHg 15%
    17:00 +44°C° 0 mm 3 mps 712 mmHg 15%
    18:00 +44°C° 0 mm 3 mps 712 mmHg 15%
    19:00 +43°C° 0 mm 3 mps 712 mmHg 17%
    20:00 +41°C° 0 mm 2 mps 713 mmHg 18%
    21:00 +39°C° 0 mm 2 mps 713 mmHg 20%
    22:00 +38°C° 0 mm 4 mps 713 mmHg 24%
    23:00 +39°C° 0 mm 5 mps 713 mmHg 28%

    25 January, Friday

    Time Temperature Precipitation Wind Pressure Humidity
    00:00 +38°C° 0 mm 6 mps 713 mmHg 32%
    01:00 +36°C° 0 mm 7 mps 713 mmHg 33%
    02:00 +36°C° 0 mm 7 mps 712 mmHg 35%
    03:00 +35°C° 0 mm 8 mps 712 mmHg 37%
    04:00 +35°C° 0 mm 7 mps 712 mmHg 36%
    05:00 +35°C° 0 mm 7 mps 712 mmHg 35%
    06:00 +34°C° 0 mm 6 mps 712 mmHg 34%
    07:00 +36°C° 0 mm 6 mps 713 mmHg 29%
    08:00 +40°C° 0 mm 6 mps 714 mmHg 23%
    09:00 +43°C° 0 mm 7 mps 714 mmHg 18%
    10:00 +44°C° 0 mm 6 mps 714 mmHg 16%
    11:00 +46°C° 0 mm 6 mps 714 mmHg 14%
    12:00 +48°C° 0 mm 5 mps 713 mmHg 11%
    13:00 +47°C° 0 mm 5 mps 713 mmHg 11%
    14:00 +47°C° 0 mm 5 mps 712 mmHg 11%
    15:00 +46°C° 0 mm 5 mps 712 mmHg 11%
    16:00 +46°C° 0 mm 5 mps 712 mmHg 12%
    17:00 +46°C° 0 mm 5 mps 712 mmHg 12%
    18:00 +46°C° 0 mm 5 mps 712 mmHg 12%
    19:00 +44°C° 0 mm 4 mps 712 mmHg 13%
    20:00 +42°C° 0 mm 4 mps 713 mmHg 14%
    21:00 +41°C° 0 mm 4 mps 713 mmHg 15%
    22:00 +40°C° 0 mm 5 mps 713 mmHg 16%
    23:00 +40°C° 0 mm 7 mps 713 mmHg 17%

    26 January, Saturday

    Time Temperature Precipitation Wind Pressure Humidity
    00:00 +40°C° 0 mm 8 mps 713 mmHg 19%
    01:00 +39°C° 0 mm 9 mps 713 mmHg 21%
    02:00 +38°C° 0 mm 10 mps 712 mmHg 24%
    03:00 +37°C° 0 mm 10 mps 712 mmHg 27%
    04:00 +36°C° 0 mm 10 mps 712 mmHg 29%
    05:00 +36°C° 0 mm 10 mps 712 mmHg 30%
    06:00 +34°C° 0 mm 9 mps 713 mmHg 32%
    07:00 +37°C° 0 mm 9 mps 713 mmHg 29%
    08:00 +39°C° 0 mm 9 mps 713 mmHg 25%
    09:00 +41°C° 0 mm 8 mps 714 mmHg 22%
    10:00 +44°C° 0 mm 8 mps 713 mmHg 20%
    11:00 +45°C° 0 mm 7 mps 713 mmHg 18%
    12:00 +47°C° 0 mm 6 mps 713 mmHg 16%
    13:00 +47°C° 0 mm 7 mps 712 mmHg 16%
    14:00 +47°C° 0 mm 7 mps 711 mmHg 16%
    15:00 +47°C° 0 mm 7 mps 711 mmHg 16%
    16:00 +46°C° 0 mm 7 mps 711 mmHg 16%
    17:00 +46°C° 0 mm 6 mps 711 mmHg 16%
    18:00 +46°C° 0 mm 6 mps 712 mmHg 16%
    19:00 +43°C° 0.1 mm 5 mps 712 mmHg 19%
    20:00 +41°C° 0.1 mm 4 mps 713 mmHg 22%
    21:00 +39°C° 0.1 mm 3 mps 713 mmHg 24%
    22:00 +38°C° 0 mm 6 mps 713 mmHg 31%
    23:00 +35°C° 0 mm 9 mps 713 mmHg 38%
    Show more